DW1039 Weather Reports


Display with metric or nautical units.
time (UTC)temp
F
wind
direction
speed
MPH
gust
MPH
rain 1hr
in
rain 24hr
in
rain mn
in
humidity
%
barometer
mb
20260509112835 54 185 0.0 3.0 0.02 0.27 0.25 96 1008.0
20260509111835 54 181 0.0 2.0 0.03 0.27 0.25 96 1007.5
20260509110835 54 196 0.0 3.0 0.03 0.27 0.25 95 1007.7
20260509105835 54 178 1.0 3.0 0.04 0.27 0.25 95 1007.9
20260509063853 55 313 0.0 0.0 0.04 0.09 0.07 93 1010.0
20260509062834 55 9 0.0 0.0 0.03 0.08 0.06 93 1010.0
20260508193848 68 290 1.0 5.0 0.00 0.00 0.00 45 1010.9
20260508192828 68 224 4.0 13.0 0.00 0.00 0.00 44 1011.0
20260508191848 69 284 3.0 9.0 0.00 0.00 0.00 43 1011.0
20260508190828 70 184 12.0 12.0 0.00 0.00 0.00 43 1011.3
20260508185828 70 211 2.0 17.0 0.00 0.00 0.00 41 1011.3
20260508184828 69 215 3.0 5.0 0.00 0.00 0.00 45 1011.6
20260508150826 62 198 3.0 11.0 0.00 0.00 0.00 56 1014.8
20260508145826 62 269 2.0 10.0 0.00 0.00 0.00 54 1014.9
20260508144826 61 201 6.0 8.0 0.00 0.00 0.00 56 1014.9
20260508143826 61 300 2.0 7.0 0.00 0.00 0.00 56 1015.0
20260508142826 60 343 4.0 12.0 0.00 0.00 0.00 55 1015.0
20260508141825 59 306 2.0 10.0 0.00 0.00 0.00 56 1015.2
20260508140825 59 265 2.0 8.0 0.00 0.00 0.00 58 1015.3
20260508135825 58 262 3.0 10.0 0.00 0.00 0.00 57 1015.3
20260508134825 57 291 1.0 10.0 0.00 0.00 0.00 60 1015.4
20260508133826 56 186 3.0 5.0 0.00 0.00 0.00 59 1015.4